GW3250 Weather Reports


time (UTC)temp
C
wind
direction
speed
KPH
gust
KPH
rain 1hr
cm
rain 24hr
cm
rain mn
cm
humidity
%
barometer
mb
20260906005102 16 78 0.0 0.0 0.00 0.00 0.00 95 1011.1
20260906004556 17 78 0.0 0.0 0.00 0.00 0.00 94 1011.2
20260906004051 17 78 0.0 0.0 0.00 0.00 0.00 93 1011.2
20260906003546 17 78 0.0 0.0 0.00 0.00 0.00 92 1011.1
20260906003042 17 78 0.0 0.0 0.00 0.00 0.00 91 1010.7
20260906002537 17 78 0.0 0.0 0.00 0.00 0.00 91 1010.8
20260906002032 17 78 0.0 0.0 0.00 0.00 0.00 90 1010.7
20260906001527 18 78 0.0 0.0 0.00 0.00 0.00 90 1010.9
20260906001021 18 78 0.0 0.0 0.00 0.00 0.00 90 1010.7
20260906000517 18 78 0.0 0.0 0.00 0.00 0.00 87 1010.7
20260906000012 18 78 0.0 1.6 0.00 0.00 0.00 87 1010.7
20260905235506 18 74 1.6 1.6 0.00 0.00 0.00 87 1010.9
20260905235001 18 145 0.0 0.0 0.00 0.00 0.00 87 1010.6
20260905234456 18 151 0.0 1.6 0.00 0.00 0.00 87 1010.4
20260905233950 18 150 0.0 0.0 0.00 0.00 0.00 87 1010.6
20260905233446 18 93 0.0 1.6 0.00 0.00 0.00 87 1010.4
20260905232944 18 149 0.0 1.6 0.00 0.00 0.00 86 1010.4
20260905232441 18 154 0.0 0.0 0.00 0.00 0.00 85 1010.4
20260905231936 19 154 0.0 0.0 0.00 0.00 0.00 84 1010.4
20260905231432 19 154 0.0 0.0 0.00 0.00 0.00 83 1010.4
20260905230928 20 154 0.0 0.0 0.00 0.00 0.00 82 1010.3
20260905230427 20 154 0.0 0.0 0.00 0.00 0.00 83 1010.3
20260905225925 20 154 0.0 1.6 0.00 0.00 0.00 82 1010.5
20260905225420 20 154 0.0 0.0 0.00 0.00 0.00 81 1010.2
20260905224915 20 155 1.6 1.6 0.00 0.00 0.00 80 1010.4
20260905224411 20 148 0.0 1.6 0.00 0.00 0.00 79 1010.4
20260905223905 20 148 0.0 0.0 0.00 0.00 0.00 79 1010.3
20260905223403 20 148 0.0 0.0 0.00 0.00 0.00 80 1010.3
20260905222858 20 148 0.0 0.0 0.00 0.00 0.00 79 1010.2
20260905222356 21 147 0.0 0.0 0.00 0.00 0.00 79 1010.2
20260905221852 21 147 0.0 0.0 0.00 0.00 0.00 77 1010.2
20260905221349 21 147 0.0 0.0 0.00 0.00 0.00 78 1010.2
20260905220839 21 147 0.0 0.0 0.00 0.00 0.00 77 1010.3
20260905220335 21 147 0.0 1.6 0.00 0.00 0.00 77 1009.9
20260905215834 21 165 0.0 1.6 0.00 0.00 0.00 77 1009.9
20260905215330 22 165 0.0 0.0 0.00 0.00 0.00 75 1009.9
20260905214826 22 140 0.0 1.6 0.00 0.00 0.00 73 1009.7
20260905214321 22 139 0.0 0.0 0.00 0.00 0.00 73 1009.8
20260905213816 23 182 1.6 3.2 0.00 0.00 0.00 71 1009.8
20260905213312 23 177 3.2 4.8 0.00 0.00 0.00 67 1009.8
20260905212807 23 162 1.6 1.6 0.00 0.00 0.00 72 1009.8
20260905212307 22 35 0.0 0.0 0.00 0.00 0.00 76 1010.1
20260905211801 22 172 0.0 0.0 0.00 0.00 0.00 76 1009.8
20260905211255 22 148 0.0 1.6 0.00 0.00 0.00 74 1009.8
20260905210753 22 168 1.6 3.2 0.00 0.00 0.00 72 1009.7
20260905210247 22 170 0.0 0.0 0.00 0.00 0.00 70 1009.8
20260905205746 22 170 1.6 1.6 0.00 0.00 0.00 73 1009.6
20260905205241 23 170 1.6 1.6 0.00 0.00 0.00 68 1009.6
20260905204740 23 41 3.2 3.2 0.00 0.00 0.00 68 1009.8
20260905204236 24 192 3.2 3.2 0.00 0.00 0.00 68 1009.6
20260905203735 23 175 1.6 1.6 0.00 0.00 0.00 70 1009.7
20260905203230 22 162 1.6 1.6 0.00 0.00 0.00 69 1009.5
20260905202725 23 140 1.6 1.6 0.00 0.00 0.00 70 1009.6
20260905202221 23 126 1.6 1.6 0.00 0.00 0.00 68 1009.5
20260905201716 22 139 0.0 0.0 0.00 0.00 0.00 73 1009.7
20260905201211 22 162 0.0 0.0 0.00 0.00 0.00 71 1009.6
20260905200706 22 147 0.0 0.0 0.00 0.00 0.00 71 1009.4
20260905200202 22 150 0.0 1.6 0.00 0.00 0.00 67 1009.4
20260905195700 22 153 0.0 0.0 0.00 0.00 0.00 69 1009.7
20260905195154 23 87 0.0 1.6 0.00 0.00 0.00 70 1009.5
20260905194650 23 215 1.6 3.2 0.00 0.00 0.00 70 1009.3
20260905194144 23 159 3.2 3.2 0.00 0.00 0.00 64 1009.5
20260905193638 23 68 3.2 3.2 0.00 0.00 0.00 64 1009.3
20260905193133 24 200 4.8 4.8 0.00 0.00 0.00 61 1009.3
20260905192629 25 202 3.2 3.2 0.00 0.00 0.00 60 1009.3
20260905192125 25 149 1.6 1.6 0.00 0.00 0.00 60 1009.5
20260905191624 25 184 1.6 3.2 0.00 0.00 0.00 59 1009.5
20260905191123 24 229 3.2 4.8 0.00 0.00 0.00 65 1009.6
20260905190621 24 183 1.6 3.2 0.00 0.00 0.00 64 1009.7
20260905190120 24 206 3.2 3.2 0.00 0.00 0.00 62 1009.7
20260905185619 25 132 1.6 3.2 0.00 0.00 0.00 61 1009.7
20260905185114 25 242 1.6 1.6 0.00 0.00 0.00 69 1009.8
20260905184609 24 105 0.0 1.6 0.00 0.00 0.00 71 1009.7
20260905184108 24 87 4.8 6.4 0.00 0.00 0.00 63 1009.5
20260905183607 25 89 1.6 1.6 0.00 0.00 0.00 66 1009.6
20260905183103 23 60 1.6 1.6 0.00 0.00 0.00 68 1009.5
20260905182602 23 108 1.6 1.6 0.00 0.00 0.00 66 1009.5
20260905182057 22 216 3.2 4.8 0.00 0.00 0.00 70 1009.8
20260905181557 23 172 3.2 4.8 0.00 0.00 0.00 69 1009.6
20260905181056 23 155 1.6 3.2 0.00 0.00 0.00 69 1009.6
20260905180551 23 190 1.6 3.2 0.00 0.00 0.00 68 1009.8
20260905180046 23 136 1.6 3.2 0.00 0.00 0.00 72 1009.9
20260905175545 22 126 1.6 1.6 0.00 0.00 0.00 72 1009.6
20260905175041 23 197 1.6 3.2 0.00 0.00 0.00 71 1009.7
20260905174536 23 56 0.0 1.6 0.00 0.00 0.00 69 1010.1
20260905174032 23 67 1.6 1.6 0.00 0.00 0.00 66 1009.8
20260905173528 24 246 3.2 3.2 0.00 0.00 0.00 63 1009.8
20260905173023 23 182 1.6 3.2 0.00 0.00 0.00 69 1009.8
20260905172521 23 215 3.2 3.2 0.00 0.00 0.00 70 1009.9
20260905172017 22 161 1.6 1.6 0.00 0.00 0.00 75 1009.9
20260905171513 22 166 3.2 3.2 0.00 0.00 0.00 71 1009.9
20260905171009 22 281 1.6 1.6 0.00 0.00 0.00 73 1009.9
20260905170506 23 63 3.2 4.8 0.00 0.00 0.00 71 1010.1
20260905170000 23 86 1.6 3.2 0.00 0.00 0.00 72 1009.9
20260905165455 23 126 1.6 1.6 0.00 0.00 0.00 70 1010.4
20260905164949 23 100 0.0 1.6 0.00 0.00 0.00 74 1010.2
20260905164444 22 119 3.2 3.2 0.00 0.00 0.00 74 1010.3
20260905163938 22 62 3.2 3.2 0.00 0.00 0.00 73 1009.9
20260905163435 23 209 1.6 1.6 0.00 0.00 0.00 76 1010.4
20260905162931 23 185 3.2 4.8 0.00 0.00 0.00 72 1010.1
20260905162426 22 115 1.6 3.2 0.00 0.00 0.00 73 1010.2
20260905161921 21 96 0.0 1.6 0.00 0.00 0.00 76 1010.4
20260905161420 21 131 1.6 3.2 0.00 0.00 0.00 76 1010.4
20260905160918 22 182 1.6 3.2 0.00 0.00 0.00 75 1010.5
20260905160412 22 197 1.6 1.6 0.00 0.00 0.00 77 1010.3
20260905155906 21 87 1.6 1.6 0.00 0.00 0.00 80 1010.3
20260905155401 21 204 1.6 3.2 0.00 0.00 0.00 75 1010.4
20260905154900 21 189 4.8 9.7 0.00 0.00 0.00 78 1010.3
20260905154355 23 176 1.6 3.2 0.00 0.00 0.00 76 1010.3
20260905153851 21 187 1.6 4.8 0.00 0.00 0.00 76 1010.3
20260905153347 23 140 4.8 6.4 0.00 0.00 0.00 75 1010.4
20260905152847 22 123 1.6 1.6 0.00 0.00 0.00 76 1010.2
20260905152346 22 60 1.6 3.2 0.00 0.00 0.00 74 1010.5
20260905151841 22 103 3.2 3.2 0.00 0.00 0.00 72 1010.5
20260905151337 22 145 1.6 3.2 0.00 0.00 0.00 76 1010.6
20260905150837 21 213 0.0 0.0 0.00 0.00 0.00 82 1010.4
20260905150331 21 82 0.0 1.6 0.00 0.00 0.00 78 1010.4
20260905145828 22 153 1.6 1.6 0.00 0.00 0.00 78 1010.4
20260905145323 21 168 1.6 1.6 0.00 0.00 0.00 82 1010.5
20260905144822 21 202 0.0 1.6 0.00 0.00 0.00 83 1010.5
20260905144318 21 188 1.6 3.2 0.00 0.00 0.00 79 1010.6
20260905143816 22 202 1.6 3.2 0.00 0.00 0.00 83 1010.8
20260905143311 20 200 1.6 1.6 0.00 0.00 0.00 80 1010.5
20260905142810 20 200 0.0 1.6 0.00 0.00 0.00 82 1010.6
20260905142306 21 204 3.2 3.2 0.00 0.00 0.00 84 1010.5
20260905141800 20 167 1.6 1.6 0.00 0.00 0.00 82 1010.6
20260905141255 20 168 0.0 1.6 0.00 0.00 0.00 86 1010.6
20260905140751 20 167 3.2 6.4 0.00 0.00 0.00 84 1010.5
20260905140251 20 182 4.8 4.8 0.00 0.00 0.00 83 1010.8
20260905135749 19 100 1.6 1.6 0.00 0.00 0.00 86 1010.7
20260905135245 20 78 0.0 0.0 0.00 0.00 0.00 85 1010.6
20260905134744 20 110 3.2 3.2 0.00 0.00 0.00 83 1010.5
20260905134239 19 106 1.6 3.2 0.00 0.00 0.00 87 1010.5
20260905133734 20 207 1.6 1.6 0.00 0.00 0.00 88 1010.2
20260905133229 20 207 1.6 1.6 0.00 0.00 0.00 87 1010.5
20260905132728 20 135 1.6 1.6 0.00 0.00 0.00 88 1010.4
20260905132224 18 188 1.6 3.2 0.00 0.00 0.00 90 1010.4
20260905131719 18 185 3.2 3.2 0.00 0.00 0.00 91 1010.5
20260905131214 18 120 3.2 4.8 0.00 0.00 0.00 89 1010.6
20260905130713 18 194 3.2 3.2 0.00 0.00 0.00 92 1010.6
20260905130208 17 175 1.6 1.6 0.00 0.00 0.00 96 1010.7
20260905125703 16 203 1.6 1.6 0.00 0.00 0.00 99 1010.7
20260905125158 16 183 1.6 1.6 0.00 0.00 0.00 99 1010.7
20260905124654 16 194 0.0 0.0 0.00 0.00 0.00 99 1010.7
20260905124150 15 194 0.0 1.6 0.00 0.00 0.00 99 1010.9
20260905123645 15 195 1.6 1.6 0.00 0.00 0.00 99 1011.1
20260905123142 15 199 1.6 1.6 0.00 0.00 0.00 99 1011.0
20260905122641 15 199 1.6 1.6 0.00 0.00 0.00 99 1011.1
20260905122136 15 199 3.2 3.2 0.00 0.00 0.00 99 1010.9
20260905121631 15 199 3.2 3.2 0.00 0.00 0.00 99 1011.0
20260905121127 14 199 3.2 3.2 0.00 0.00 0.00 99 1011.0
20260905120625 14 198 1.6 1.6 0.00 0.00 0.00 99 1010.8
20260905120121 14 199 1.6 3.2 0.00 0.00 0.00 99 1010.6
20260905115620 14 199 1.6 3.2 0.00 0.00 0.00 99 1010.8
20260905115115 14 199 3.2 3.2 0.00 0.00 0.00 99 1010.8
20260905114614 14 199 1.6 3.2 0.00 0.00 0.00 99 1010.7
20260905114113 14 198 1.6 1.6 0.00 0.00 0.00 99 1010.9
20260905113608 14 198 0.0 0.0 0.00 0.00 0.00 99 1010.8
20260905113104 13 198 1.6 1.6 0.00 0.00 0.00 99 1010.9
20260905112558 13 198 0.0 0.0 0.00 0.00 0.00 99 1010.7
20260905112054 13 198 0.0 0.0 0.00 0.00 0.00 99 1010.4
20260905111549 13 198 0.0 1.6 0.00 0.00 0.00 99 1010.4
20260905111048 13 198 0.0 0.0 0.00 0.00 0.00 99 1010.4
20260905110547 13 198 1.6 1.6 0.00 0.00 0.00 99 1010.2
20260905110043 13 198 0.0 0.0 0.00 0.00 0.00 99 1010.1
20260905105542 13 197 0.0 1.6 0.00 0.00 0.00 99 1009.8
20260905105042 13 197 0.0 0.0 0.00 0.00 0.00 99 1009.7
20260905104538 13 197 0.0 0.0 0.00 0.00 0.00 99 1009.7
20260905104037 13 197 0.0 1.6 0.00 0.00 0.00 99 1009.8
20260905103533 14 197 0.0 1.6 0.00 0.00 0.00 99 1009.7
20260905103029 14 197 1.6 1.6 0.00 0.00 0.00 99 1009.7
20260905102524 14 197 0.0 0.0 0.00 0.00 0.00 99 1009.5
20260905102020 14 197 0.0 1.6 0.00 0.00 0.00 99 1009.7
20260905101518 14 197 1.6 1.6 0.00 0.00 0.00 99 1009.3
20260905101017 14 197 1.6 1.6 0.00 0.00 0.00 99 1009.5
20260905100514 14 197 1.6 1.6 0.00 0.00 0.00 99 1009.4
20260905100008 14 197 0.0 0.0 0.00 0.00 0.00 99 1009.4
20260905095503 14 198 1.6 1.6 0.00 0.00 0.00 99 1009.3
20260905094957 14 181 0.0 1.6 0.00 0.00 0.00 99 1009.4
20260905094453 14 178 1.6 1.6 0.00 0.00 0.00 99 1009.3
20260905093951 14 176 1.6 1.6 0.00 0.00 0.00 99 1009.4
20260905093447 14 176 1.6 1.6 0.00 0.00 0.00 99 1009.3
20260905092942 14 166 0.0 0.0 0.00 0.00 0.00 99 1009.2
20260905092438 14 166 0.0 0.0 0.00 0.00 0.00 99 1009.3
20260905091932 14 166 0.0 1.6 0.00 0.00 0.00 99 1009.2
20260905091427 14 166 0.0 0.0 0.00 0.00 0.00 99 1009.3
20260905090926 14 166 1.6 1.6 0.00 0.00 0.00 99 1009.4
20260905090422 15 166 0.0 0.0 0.00 0.00 0.00 99 1009.2
20260905085921 15 166 0.0 0.0 0.00 0.00 0.00 99 1009.4
20260905085420 15 164 0.0 0.0 0.00 0.00 0.00 99 1009.4
20260905084917 15 164 0.0 0.0 0.00 0.00 0.00 99 1009.5
20260905084415 15 164 0.0 0.0 0.00 0.00 0.00 99 1009.4
20260905083910 15 164 1.6 1.6 0.00 0.00 0.00 99 1009.3
20260905083407 15 164 0.0 0.0 0.00 0.00 0.00 99 1009.4
20260905082902 15 165 1.6 1.6 0.00 0.00 0.00 99 1009.3
20260905082358 15 165 0.0 0.0 0.00 0.00 0.00 99 1009.4
20260905081853 15 165 1.6 1.6 0.00 0.00 0.00 99 1009.5
20260905081348 15 165 0.0 0.0 0.00 0.00 0.00 99 1009.3
20260905080846 15 165 0.0 1.6 0.00 0.00 0.00 99 1009.5
20260905080341 15 165 0.0 1.6 0.00 0.00 0.00 99 1009.5
20260905075839 15 165 0.0 0.0 0.00 0.00 0.00 99 1009.3
20260905075334 15 165 1.6 1.6 0.00 0.00 0.00 99 1009.2
20260905074833 15 165 0.0 0.0 0.00 0.00 0.00 99 1009.3
20260905074329 15 165 0.0 0.0 0.00 0.00 0.00 99 1009.4
20260905073824 15 165 1.6 1.6 0.00 0.00 0.00 99 1009.4
20260905073319 15 165 1.6 1.6 0.00 0.00 0.00 99 1009.2
20260905072814 15 165 1.6 1.6 0.00 0.00 0.00 99 1009.5
20260905072309 15 165 1.6 1.6 0.00 0.00 0.00 99 1009.5
20260905071806 15 165 0.0 1.6 0.00 0.00 0.00 99 1009.5
20260905071302 15 165 0.0 1.6 0.00 0.00 0.00 99 1009.6
20260905070756 16 165 0.0 1.6 0.00 0.00 0.00 99 1009.6
20260905070252 16 165 0.0 1.6 0.00 0.00 0.00 99 1009.6
20260905065751 16 165 0.0 1.6 0.00 0.00 0.00 99 1009.7
20260905065244 16 165 0.0 0.0 0.00 0.00 0.00 99 1009.9
20260905064740 16 165 0.0 1.6 0.00 0.00 0.00 99 1010.1
20260905064235 16 165 0.0 1.6 0.00 0.00 0.00 99 1009.7
20260905063728 16 165 0.0 0.0 0.00 0.00 0.00 98 1009.8
20260905063224 16 165 1.6 1.6 0.00 0.00 0.00 98 1009.7
20260905062720 16 165 0.0 0.0 0.00 0.00 0.00 99 1009.7
20260905062219 16 165 0.0 0.0 0.00 0.00 0.00 98 1009.9
20260905061714 16 165 0.0 1.6 0.00 0.00 0.00 98 1010.1
20260905061209 16 165 0.0 1.6 0.00 0.00 0.00 98 1009.9
20260905060704 16 165 1.6 3.2 0.00 0.00 0.00 98 1009.9
20260905060201 16 165 0.0 0.0 0.00 0.00 0.00 99 1010.3
20260905055659 16 165 1.6 1.6 0.00 0.00 0.00 99 1010.3
20260905055154 16 165 0.0 1.6 0.00 0.00 0.00 99 1010.2
20260905054649 16 165 0.0 0.0 0.00 0.00 0.00 99 1010.2
20260905054145 17 165 0.0 1.6 0.00 0.00 0.00 99 1010.2
20260905053645 17 165 0.0 0.0 0.00 0.00 0.00 99 1010.3
20260905053140 17 165 0.0 0.0 0.00 0.00 0.00 99 1010.4
20260905052639 17 165 0.0 0.0 0.00 0.00 0.00 99 1010.5
20260905052134 17 165 0.0 0.0 0.00 0.00 0.00 99 1010.6
20260905051629 17 165 1.6 1.6 0.00 0.00 0.00 99 1010.7
20260905051126 17 165 0.0 0.0 0.00 0.00 0.00 99 1010.6
20260905050622 17 165 0.0 1.6 0.00 0.00 0.00 99 1010.6
20260905050119 17 165 0.0 1.6 0.00 0.00 0.00 99 1010.7
20260905045618 17 165 0.0 0.0 0.00 0.00 0.00 99 1010.6
20260905045114 17 165 0.0 0.0 0.00 0.00 0.00 99 1010.4
20260905044613 17 165 0.0 0.0 0.00 0.00 0.00 99 1010.7
20260905044108 17 165 0.0 0.0 0.00 0.00 0.00 99 1010.7
20260905043607 17 165 0.0 0.0 0.00 0.00 0.00 98 1010.8
20260905043103 17 165 0.0 0.0 0.00 0.00 0.00 98 1010.8
20260905042601 17 165 0.0 0.0 0.00 0.00 0.00 98 1011.0
20260905042056 17 165 0.0 0.0 0.00 0.00 0.00 98 1010.9
20260905041552 17 165 0.0 0.0 0.00 0.00 0.00 98 1010.7
20260905041047 17 165 0.0 0.0 0.00 0.00 0.00 98 1010.9
20260905040547 17 165 0.0 0.0 0.00 0.00 0.00 98 1010.7
20260905040045 17 165 0.0 0.0 0.00 0.00 0.00 98 1010.8
20260905035541 17 165 0.0 0.0 0.00 0.81 0.81 98 1010.6
20260905035038 17 165 0.0 0.0 0.00 0.81 0.81 97 1010.4
20260905034533 17 165 0.0 0.0 0.00 0.81 0.81 97 1010.8
20260905034033 17 165 0.0 0.0 0.00 0.81 0.81 97 1010.7
20260905033526 17 165 0.0 0.0 0.00 0.81 0.81 97 1010.8
20260905033023 17 165 0.0 0.0 0.00 0.81 0.81 97 1010.9
20260905032517 17 165 0.0 0.0 0.00 0.81 0.81 97 1010.8
20260905032012 17 165 0.0 0.0 0.00 0.81 0.81 96 1010.7
20260905031508 17 165 0.0 0.0 0.00 0.81 0.81 96 1010.7
20260905031003 17 165 0.0 0.0 0.00 0.81 0.81 96 1010.5
20260905030458 17 165 0.0 0.0 0.00 0.81 0.81 96 1010.7
20260905025956 17 165 0.0 0.0 0.00 0.81 0.81 95 1010.5
20260905025452 17 165 0.0 0.0 0.00 0.81 0.81 95 1010.7
20260905024944 17 165 0.0 0.0 0.00 0.81 0.81 95 1010.6
20260905024444 18 165 0.0 0.0 0.00 0.81 0.81 95 1010.9
20260905023939 17 165 0.0 0.0 0.00 0.81 0.81 94 1010.7
20260905023434 18 165 0.0 0.0 0.00 0.81 0.81 94 1010.8
20260905022933 18 165 0.0 0.0 0.00 0.81 0.81 94 1011.0
20260905022428 18 165 0.0 0.0 0.00 0.81 0.81 94 1010.9
20260905021923 18 165 0.0 0.0 0.00 0.81 0.81 94 1010.9
20260905021418 18 165 0.0 0.0 0.00 0.81 0.81 94 1010.8
20260905020913 18 165 0.0 0.0 0.00 0.81 0.81 94 1010.9
20260905020412 18 165 0.0 0.0 0.00 0.81 0.81 94 1010.8
20260905015912 18 165 0.0 0.0 0.00 0.81 0.81 95 1011.0
20260905015410 18 165 0.0 1.6 0.00 0.81 0.81 91 1010.7
20260905014910 18 165 0.0 0.0 0.00 0.81 0.81 92 1010.6
20260905014405 18 164 0.0 0.0 0.00 0.81 0.81 93 1010.7
20260905013900 18 164 0.0 0.0 0.00 0.81 0.81 93 1010.8
20260905013357 18 164 0.0 0.0 0.00 0.81 0.81 94 1010.9
20260905012852 18 164 0.0 0.0 0.00 0.81 0.81 93 1010.7
20260905012347 18 164 0.0 0.0 0.00 0.81 0.81 93 1010.6
20260905011844 18 164 0.0 0.0 0.00 0.81 0.81 92 1011.0
20260905011339 18 165 0.0 0.0 0.00 0.81 0.81 92 1010.5
20260905010835 18 165 0.0 0.0 0.00 0.81 0.81 92 1010.7
20260905010330 18 165 0.0 0.0 0.00 0.81 0.81 92 1010.7
20260905005826 18 165 0.0 0.0 0.00 0.81 0.81 92 1010.5